Regional Weather Roundup
Issued by NWS

Home | Current Version | Previous Version | Text Only | Print | Product List | Glossary On
Versions: 1 2 3 4 5 6 7 8 9 10 11 12 13 14 15 16 17 18 19 20 21 22 23 24 25 26 27 28 29 30 31 32 33 34 35 36 37 38 39 40 41 42 43 44 45 46 47 48 49 50
000
ASPQ40 PGUM 251112
RWRPQ
WEATHER ROUNDUP FOR THE MARIANAS AND MICRONESIA
NATIONAL WEATHER SERVICE TIYAN GU
900 PM CHST THU DEC 25 2014

GUZ001>004-251200-
MARIANA ISLANDS-

CITY           SKY/WX    TMP DP  RH WIND       PRES   REMARKS
GUAM AIRPORT   PTCLDY    82  77  83 E12       29.87R HX  91
ANDERSEN AFB   MOCLDY    81  77  89 E16       29.87R
ROTA AIRPORT   NOT AVBL
TINIAN AP      NOT AVBL
SAIPAN AP      PTCLDY    81  75  83 E16G25    29.88R

$$

PMZ161-251200-
REPUBLIC OF PALAU-

CITY           SKY/WX    TMP DP  RH WIND       PRES   REMARKS
KOROR AP       NOT AVBL
KOROR WSO      LGT RAIN  75  75 100 CALM      29.80R

$$

PMZ171>174-251200-
FEDERATED STATES OF MICRONESIA-

CITY           SKY/WX    TMP DP  RH WIND       PRES   REMARKS
YAP AIRPORT    MOCLDY    82  77  83 E10       29.75R HX  91
CHUUK AP       CLOUDY    84  77  79 N9        29.74S HX  94
POHNPEI AP     NOT AVBL
POHNPEI WSO    CLOUDY    82  75  78 NE9       29.80S
KOSRAE AP      NOT AVBL

$$

PMZ181-251200-
REPUBLIC OF THE MARSHALL ISLANDS-

CITY           SKY/WX    TMP DP  RH WIND       PRES   REMARKS
KWAJALEIN AP   PTCLDY    82  72  69 NE22      29.80S
MAJURO AP      NOT AVBL
MAJURO WSO     MOCLDY    82  75  78 E14       29.77R

$$




USA.gov is the U.S. government's official web portal to all federal, state and local government web resources and services.